Location: Del Oro Observatory
(38.3044°N, 104.8119°W)
Time: 20:28:18
(UTC-06:00)

Iridium 35 - Visible Passes

Search period start: 27 March 2017 00:00
Search period end: 06 April 2017 00:00
Orbit: 776 x 779 km, 86.4° (Epoch: 26 March)

Date Brightness Start Highest point End Pass type
(mag) Time Alt. Az. Time Alt. Az. Time Alt. Az.
30 Mar 7.8 23:27:34 10° N 23:27:53 12° N 23:27:53 12° N visible
31 Mar 7.7 22:54:16 10° NNE 22:54:38 12° NNE 22:54:38 12° NNE visible
02 Apr 7.9 00:01:32 10° NNW 00:01:52 12° NNW 00:01:52 12° NNW visible
02 Apr 7.6 23:27:41 10° N 23:28:37 15° N 23:28:37 15° N visible
03 Apr 7.3 22:54:11 10° N 22:55:23 17° N 22:55:23 17° N visible
04 Apr 7.2 22:21:01 10° NNE 22:22:10 16° NNE 22:22:10 16° NNE visible
05 Apr 7.9 00:02:02 10° NNW 00:02:38 13° NNW 00:02:38 13° NNW visible
05 Apr 7.3 21:48:24 10° NE 21:48:57 12° NE 21:48:57 12° NE visible
05 Apr 7.4 23:27:55 10° NNW 23:29:26 19° NNW 23:29:26 19° NNW visible
